Retour au catalogue

STARLINK-5920

ActifCommunicationsVLEO
NORAD 55935·PAYLOAD·🇺🇸 United States

Lancé Mar 17, 2023 depuis Vandenberg Space Force Base

Loading…

Prochains Passages (prochaines 24 heures)

TLE

FraisSource: CelesTrak SupGP

Époque: Sep 14, 2026, 21:53 UTC

1 55935C 23037X   26257.91229167  .00388390  00000+0  31112-1 0  2577
2 55935  70.0006 167.4224 0003159 270.7334  42.1418 14.99873427    17

Suivez STARLINK-5920 en temps réel avec AllMySat

Download on the App Store